User: anonymous   Login
Location: Unspecified
(40.9833°N, 0.0000°E)
Time: 21:52:33
(UTC+00:00)
Language:

UKube-1 - Orbit

View from above orbital plane
View from above orbital plane
View from above satellite
View from above satellite

Ground track
Ground track

The orbit data is extracted from the following two-line orbital elements,

1 40074U 14037F   19295.44021584  .00000227  00000-0  34447-4 0  9991
2 40074  98.4493 104.6408 0004517 154.0834 206.0624 14.84116123286309
Epoch (UTC): 22 October 2019 10:33:54
Eccentricity: 0.0004517
inclination: 98.4493°
perigee height: 613 km
apogee height: 619 km
right ascension of ascending node: 104.6408°
argument of perigee: 154.0834°
revolutions per day: 14.84116123
mean anomaly at epoch: 206.0624°
orbit number at epoch: 28630

The dashed part of the orbit path shows where the satellite is in the earth's shadow,  

DLR